| time (UTC) | temp F | wind direction | speed MPH | gust MPH | rain 1hr in | rain 24hr in | rain mn in | humidity % | barometer mb |
| 20260507154545 | 47 | 355 | 1.0 | 5.0 | 0.00 | 0.00 | 0.00 | 52 | 1046.0 |
| 20260507153052 | 48 | 53 | 0.0 | 3.0 | 0.00 | 0.00 | 0.00 | 52 | 1046.4 |
| 20260507151543 | 48 | 137 | 0.0 | 0.0 | 0.00 | 0.00 | 0.00 | 52 | 1046.3 |
| 20260507150049 | 49 | 342 | 0.0 | 3.0 | 0.00 | 0.00 | 0.00 | 56 | 1046.6 |
| 20260507144535 | 47 | 292 | 0.0 | 0.0 | 0.00 | 0.00 | 0.00 | 65 | 1046.7 |
| 20260507143031 | 45 | 292 | 0.0 | 0.0 | 0.00 | 0.00 | 0.00 | 68 | 1046.8 |
| 20260507141527 | 43 | 292 | 0.0 | 0.0 | 0.00 | 0.00 | 0.00 | 70 | 1046.9 |
| 20260507140023 | 41 | 292 | 0.0 | 0.0 | 0.00 | 0.00 | 0.00 | 69 | 1047.2 |
| 20260507134519 | 39 | 292 | 0.0 | 0.0 | 0.00 | 0.00 | 0.00 | 73 | 1047.3 |
| 20260507133016 | 38 | 291 | 0.0 | 1.0 | 0.00 | 0.00 | 0.00 | 73 | 1047.2 |
| 20260507131522 | 34 | 324 | 0.0 | 3.0 | 0.00 | 0.00 | 0.00 | 79 | 1047.1 |
| 20260507130010 | 32 | 348 | 0.0 | 0.0 | 0.00 | 0.00 | 0.00 | 83 | 1047.5 |
| 20260507124509 | 31 | 348 | 0.0 | 0.0 | 0.00 | 0.00 | 0.00 | 84 | 1047.5 |
| 20260507123009 | 31 | 349 | 0.0 | 0.0 | 0.00 | 0.00 | 0.00 | 83 | 1047.5 |
| 20260507121508 | 31 | 350 | 0.0 | 0.0 | 0.00 | 0.00 | 0.00 | 79 | 1047.6 |
| 20260507120006 | 33 | 350 | 0.0 | 0.0 | 0.00 | 0.00 | 0.00 | 76 | 1047.6 |
| 20260507114503 | 33 | 350 | 0.0 | 0.0 | 0.00 | 0.00 | 0.00 | 77 | 1047.6 |
| 20260507113002 | 33 | 349 | 0.0 | 0.0 | 0.00 | 0.00 | 0.00 | 77 | 1047.8 |
| 20260507111507 | 33 | 348 | 0.0 | 0.0 | 0.00 | 0.00 | 0.00 | 74 | 1047.9 |
| 20260507110101 | 30 | 346 | 0.0 | 4.0 | 0.00 | 0.00 | 0.00 | 81 | 1047.8 |
| 20260507104559 | 26 | 305 | 0.0 | 0.0 | 0.00 | 0.00 | 0.00 | 86 | 1047.7 |
| 20260507103105 | 27 | 305 | 0.0 | 0.0 | 0.00 | 0.00 | 0.00 | 86 | 1047.7 |
| 20260507101601 | 28 | 305 | 0.0 | 2.0 | 0.00 | 0.00 | 0.00 | 86 | 1047.5 |
| 20260507100106 | 28 | 301 | 0.0 | 2.0 | 0.00 | 0.00 | 0.00 | 86 | 1047.8 |
| 20260507094553 | 28 | 301 | 0.0 | 0.0 | 0.00 | 0.00 | 0.00 | 84 | 1047.6 |
| 20260507093056 | 27 | 300 | 0.0 | 0.0 | 0.00 | 0.00 | 0.00 | 85 | 1047.9 |
| 20260507091550 | 27 | 300 | 0.0 | 0.0 | 0.00 | 0.00 | 0.00 | 83 | 1048.1 |
| 20260507090049 | 28 | 300 | 0.0 | 0.0 | 0.00 | 0.00 | 0.00 | 82 | 1048.0 |
| 20260507084548 | 28 | 300 | 0.0 | 0.0 | 0.00 | 0.00 | 0.00 | 80 | 1047.9 |
| 20260507083056 | 29 | 300 | 0.0 | 0.0 | 0.00 | 0.00 | 0.00 | 76 | 1048.0 |
| 20260507081538 | 30 | 300 | 0.0 | 0.0 | 0.00 | 0.00 | 0.00 | 71 | 1048.3 |
| 20260507080032 | 31 | 300 | 0.0 | 0.0 | 0.00 | 0.00 | 0.00 | 67 | 1048.3 |
| 20260507074530 | 35 | 317 | 0.0 | 0.0 | 0.00 | 0.00 | 0.00 | 61 | 1048.3 |
| 20260507073025 | 35 | 335 | 0.0 | 4.0 | 0.00 | 0.00 | 0.00 | 51 | 1048.3 |
| 20260507071525 | 35 | 10 | 0.0 | 4.0 | 0.00 | 0.00 | 0.00 | 52 | 1048.5 |
| 20260507070032 | 35 | 348 | 0.0 | 9.0 | 0.00 | 0.00 | 0.00 | 53 | 1048.7 |
| 20260507064533 | 35 | 5 | 0.0 | 5.0 | 0.00 | 0.00 | 0.00 | 52 | 1048.4 |
| 20260507063024 | 35 | 9 | 0.0 | 5.0 | 0.00 | 0.00 | 0.00 | 55 | 1048.4 |
| 20260507061517 | 35 | 19 | 0.0 | 5.0 | 0.00 | 0.00 | 0.00 | 55 | 1048.4 |
| 20260507060019 | 35 | 10 | 1.0 | 8.0 | 0.00 | 0.00 | 0.00 | 54 | 1048.3 |
| 20260507054512 | 35 | 11 | 2.0 | 13.0 | 0.00 | 0.00 | 0.00 | 55 | 1048.4 |
| 20260507053010 | 35 | 15 | 0.0 | 7.0 | 0.00 | 0.00 | 0.00 | 57 | 1048.6 |
| 20260507051510 | 35 | 18 | 2.0 | 7.0 | 0.00 | 0.00 | 0.00 | 56 | 1048.6 |
| 20260507050009 | 35 | 5 | 0.0 | 6.0 | 0.00 | 0.00 | 0.00 | 59 | 1048.4 |
| 20260507044507 | 35 | 19 | 2.0 | 12.0 | 0.00 | 0.00 | 0.00 | 58 | 1048.4 |
| 20260507043006 | 35 | 25 | 1.0 | 9.0 | 0.00 | 0.00 | 0.00 | 60 | 1048.2 |
| 20260507041510 | 34 | 13 | 1.0 | 13.0 | 0.00 | 0.00 | 0.00 | 64 | 1048.2 |
| 20260507040001 | 33 | 313 | 0.0 | 9.0 | 0.00 | 0.00 | 0.00 | 70 | 1048.1 |
| 20260507034559 | 31 | 5 | 0.0 | 6.0 | 0.00 | 0.00 | 0.00 | 80 | 1048.0 |
| 20260507033058 | 29 | 267 | 0.0 | 3.0 | 0.00 | 0.00 | 0.00 | 91 | 1048.1 |
| 20260507031558 | 29 | 198 | 0.0 | 0.0 | 0.00 | 0.00 | 0.00 | 91 | 1048.0 |
| 20260507030059 | 30 | 198 | 0.0 | 0.0 | 0.00 | 0.00 | 0.00 | 91 | 1047.6 |
| 20260507024618 | 30 | 198 | 0.0 | 0.0 | 0.00 | 0.00 | 0.00 | 91 | 1047.5 |
| 20260507023056 | 31 | 198 | 0.0 | 0.0 | 0.00 | 0.00 | 0.00 | 91 | 1047.3 |
| 20260507021555 | 31 | 198 | 0.0 | 0.0 | 0.00 | 0.00 | 0.00 | 91 | 1047.1 |
| 20260507020108 | 31 | 198 | 0.0 | 0.0 | 0.00 | 0.00 | 0.00 | 91 | 1047.2 |
| 20260507014605 | 32 | 198 | 0.0 | 0.0 | 0.00 | 0.00 | 0.00 | 91 | 1047.1 |
| 20260507013055 | 32 | 198 | 0.0 | 0.0 | 0.00 | 0.00 | 0.00 | 91 | 1047.1 |
| 20260507011554 | 33 | 198 | 0.0 | 0.0 | 0.00 | 0.00 | 0.00 | 91 | 1047.1 |
| 20260507010053 | 33 | 198 | 0.0 | 0.0 | 0.00 | 0.00 | 0.00 | 91 | 1047.0 |
| 20260507004553 | 33 | 198 | 0.0 | 0.0 | 0.00 | 0.00 | 0.00 | 90 | 1047.0 |
| 20260507003052 | 33 | 198 | 0.0 | 0.0 | 0.00 | 0.00 | 0.00 | 90 | 1047.1 |
| 20260507001557 | 33 | 198 | 0.0 | 0.0 | 0.00 | 0.00 | 0.00 | 90 | 1046.9 |
| 20260507000051 | 33 | 198 | 0.0 | 0.0 | 0.00 | 0.00 | 0.00 | 90 | 1047.0 |
| 20260506234556 | 34 | 198 | 0.0 | 0.0 | 0.00 | 0.00 | 0.00 | 89 | 1046.9 |
| 20260506233049 | 34 | 198 | 0.0 | 0.0 | 0.00 | 0.00 | 0.00 | 89 | 1046.9 |
| 20260506231556 | 34 | 198 | 0.0 | 0.0 | 0.00 | 0.00 | 0.00 | 88 | 1046.8 |
| 20260506230055 | 33 | 198 | 0.0 | 0.0 | 0.00 | 0.00 | 0.00 | 89 | 1046.9 |
| 20260506224546 | 33 | 198 | 0.0 | 0.0 | 0.00 | 0.00 | 0.00 | 89 | 1046.9 |
| 20260506223053 | 32 | 198 | 0.0 | 3.0 | 0.00 | 0.00 | 0.00 | 89 | 1047.1 |
| 20260506221544 | 33 | 195 | 0.0 | 2.0 | 0.00 | 0.00 | 0.00 | 88 | 1047.2 |
| 20260506220043 | 33 | 195 | 0.0 | 1.0 | 0.00 | 0.00 | 0.00 | 85 | 1047.3 |
| 20260506214544 | 33 | 195 | 0.0 | 0.0 | 0.00 | 0.00 | 0.00 | 84 | 1047.3 |
| 20260506213059 | 32 | 195 | 0.0 | 0.0 | 0.00 | 0.00 | 0.00 | 86 | 1047.5 |
| 20260506211549 | 31 | 195 | 0.0 | 0.0 | 0.00 | 0.00 | 0.00 | 87 | 1047.8 |
| 20260506210036 | 31 | 195 | 0.0 | 0.0 | 0.00 | 0.00 | 0.00 | 88 | 1047.9 |
| 20260506204536 | 30 | 195 | 0.0 | 1.0 | 0.00 | 0.00 | 0.00 | 88 | 1048.1 |
| 20260506203032 | 30 | 195 | 0.0 | 0.0 | 0.00 | 0.00 | 0.00 | 89 | 1048.2 |
| 20260506201535 | 29 | 195 | 0.0 | 2.0 | 0.00 | 0.00 | 0.00 | 89 | 1048.4 |
| 20260506200029 | 29 | 195 | 0.0 | 0.0 | 0.00 | 0.00 | 0.00 | 89 | 1048.4 |
| 20260506194531 | 29 | 195 | 0.0 | 2.0 | 0.00 | 0.00 | 0.00 | 89 | 1048.5 |
| 20260506193027 | 29 | 195 | 0.0 | 3.0 | 0.00 | 0.00 | 0.00 | 89 | 1048.5 |
| 20260506191527 | 28 | 195 | 0.0 | 1.0 | 0.00 | 0.00 | 0.00 | 89 | 1048.6 |
| 20260506190026 | 28 | 195 | 0.0 | 4.0 | 0.00 | 0.00 | 0.00 | 90 | 1048.7 |
| 20260506184526 | 29 | 195 | 0.0 | 4.0 | 0.00 | 0.00 | 0.00 | 89 | 1048.8 |
| 20260506183031 | 29 | 195 | 0.0 | 3.0 | 0.00 | 0.00 | 0.00 | 89 | 1048.9 |
| 20260506181522 | 29 | 195 | 0.0 | 0.0 | 0.00 | 0.00 | 0.00 | 91 | 1049.0 |
| 20260506180019 | 28 | 195 | 0.0 | 0.0 | 0.00 | 0.00 | 0.00 | 91 | 1049.0 |
| 20260506174516 | 27 | 196 | 0.0 | 0.0 | 0.00 | 0.00 | 0.00 | 91 | 1048.8 |
| 20260506173013 | 26 | 196 | 0.0 | 0.0 | 0.00 | 0.00 | 0.00 | 92 | 1049.0 |
| 20260506171518 | 26 | 196 | 0.0 | 0.0 | 0.00 | 0.00 | 0.00 | 91 | 1048.7 |
| 20260506170011 | 26 | 196 | 0.0 | 0.0 | 0.00 | 0.00 | 0.00 | 91 | 1048.6 |
| 20260506164508 | 26 | 196 | 0.0 | 0.0 | 0.00 | 0.00 | 0.00 | 91 | 1048.1 |
| 20260506163008 | 26 | 197 | 0.0 | 0.0 | 0.00 | 0.00 | 0.00 | 92 | 1047.7 |
| 20260506161503 | 26 | 197 | 0.0 | 0.0 | 0.00 | 0.00 | 0.00 | 92 | 1047.4 |
| 20260506160003 | 25 | 197 | 0.0 | 0.0 | 0.00 | 0.00 | 0.00 | 92 | 1047.3 |